Wind_Speed
82 64 57 51 44 42 40 41 43 46 52 55 57 55 52 53 54 53 54 54 53 53 53 54 50 50 50 55 60 64 69 74 80 85 94 100 88 73 62 51 43 32 28
82 68 61 54 49 44 41 40 42 45 46 51 56 58 59 58 56 54 53 52 54 54 53 50 52 51 50 54 59 64 68 73 78 83 91 98 88 79 66 55 46 37 26
82 75 60 55 48 47 45 45 44 44 44 45 49 55 57 59 60 59 58 55 54 54 53 48 50 52 52 53 57 62 66 70 76 80 87 93 89 80 70 62 48 40 34
83 80 64 54 51 48 47 48 46 44 42 43 45 48 53 57 58 59 59 57 56 54 54 51 48 50 50 53 54 59 63 68 73 77 83 89 86 80 71 62 57 45 36
80 83 71 54 50 48 49 47 46 43 46 43 43 43 44 48 52 55 56 56 54 53 54 54 50 48 48 50 52 55 59 64 69 73 79 85 86 80 73 66 59 53 42
83 80 71 59 49 47 48 47 48 42 42 46 45 43 41 43 46 50 52 53 51 52 51 49 49 48 45 48 50 51 55 59 64 68 74 80 84 81 75 70 61 54 46
85 75 70 66 49 45 47 46 48 43 39 40 43 41 40 37 39 42 46 50 50 48 47 47 45 45 46 46 47 47 51 53 60 64 69 75 80 80 74 72 65 55 50
85 78 71 66 53 46 47 51 48 45 41 37 38 38 39 41 42 41 42 45 46 46 47 45 44 42 43 44 45 45 47 50 53 59 63 69 73 78 75 69 69 61 51
89 78 75 63 59 56 54 58 60 54 42 41 39 37 41 40 41 43 41 43 45 43 46 46 43 39 40 40 42 43 44 47 48 53 57 63 66 71 73 71 66 66 60
91 77 72 62 57 53 55 62 62 59 55 48 42 42 43 45 42 39 43 42 40 40 41 44 44 39 36 38 39 41 41 43 44 47 52 56 62 64 69 69 68 64 64
87 80 69 58 56 51 55 63 64 64 61 55 53 46 47 45 46 45 42 41 37 37 37 40 41 40 34 36 36 39 40 40 42 42 46 51 56 58 62 65 66 66 62
90 80 78 63 57 52 54 57 57 62 61 63 56 56 51 49 46 44 46 41 38 36 35 37 38 39 36 33 35 35 38 37 40 39 41 45 49 54 56 60 61 62 64
87 82 81 66 59 58 52 54 55 54 60 61 62 60 59 53 56 52 49 40 38 38 34 32 32 36 37 34 34 32 35 36 36 37 36 40 44 47 52 53 57 58 59
91 86 77 66 63 62 61 60 61 56 53 58 58 61 58 59 60 59 54 47 40 42 40 36 35 32 33 37 34 33 32 35 34 35 34 35 38 42 45 48 50 53 55
97 87 76 65 65 64 68 68 69 69 62 60 64 63 57 64 65 60 57 52 49 48 46 40 38 34 29 33 38 34 32 33 34 33 34 31 33 36 39 43 45 46 49
95 92 75 75 71 72 76 76 71 74 68 64 60 65 65 67 65 63 57 58 54 51 48 40 43 40 35 30 34 39 34 31 33 33 31 31 29 31 35 37 40 42 43
94 82 73 82 87 82 77 77 76 69 65 67 62 59 67 70 67 62 58 54 53 53 50 44 42 41 41 34 32 37 36 33 33 32 32 30 27 28 29 32 35 37 40
93 90 85 90 94 97 92 85 78 69 68 68 64 67 66 66 65 63 59 57 55 52 52 46 42 43 41 39 35 34 38 36 33 33 31 30 28 25 26 26 29 33 35
99 98 96 97 97 97 93 84 79 71 62 62 61 62 65 66 66 64 61 65 57 55 56 51 44 44 43 42 40 37 36 39 37 34 33 31 30 27 24 24 24 26 30
101 101 102 98 93 91 88 82 74 66 59 61 63 70 70 67 66 69 71 70 59 58 54 54 52 49 43 42 44 39 38 38 40 37 36 33 32 30 26 24 23 23 25
102 101 98 92 88 86 82 77 69 68 66 63 65 69 69 69 74 74 68 68 64 61 59 59 49 47 43 42 45 42 40 38 41 41 39 36 34 33 30 28 24 22 22
98 94 90 85 83 81 77 72 67 67 69 69 68 68 66 68 70 66 65 63 59 58 59 53 46 44 45 44 44 45 42 42 40 44 43 40 37 35 33 31 29 25 22
92 87 85 84 81 79 76 73 69 67 66 65 66 65 68 71 69 67 60 58 55 56 54 51 49 48 47 45 45 47 44 42 43 44 46 44 42 38 36 34 32 31 27
85 85 83 80 78 77 79 73 69 64 61 63 65 66 65 63 61 59 58 57 55 53 54 53 51 51 49 48 48 48 48 46 46 45 48 48 46 43 39 37 36 34 32
83 82 81 79 79 78 77 76 65 61 60 60 62 62 63 62 59 59 57 55 54 54 54 54 52 53 51 50 50 50 49 47 45 49 48 52 50 47 44 41 39 37 37
82 82 81 80 77 76 74 67 63 59 56 54 56 56 56 54 55 56 54 54 53 54 53 54 53 52 52 50 51 50 51 51 45 47 50 51 54 52 48 46 43 40 39
Wind_Direction
353 345 334 333 327 318 299 302 297 287 280 276 277 280 283 285 289 293 295 299 302 305 309 314 313 317 320 324 327 330 333 337 342 345 349 350 351 352 354 346 338 336 318
354 348 335 328 329 323 316 311 308 300 291 282 277 278 279 280 282 284 287 292 297 301 306 310 311 315 320 323 327 330 334 338 342 347 351 353 355 356 359 357 348 341 331
353 351 339 327 326 329 324 320 313 307 299 295 285 279 278 280 282 284 287 289 293 297 302 306 309 313 319 323 328 331 334 339 343 348 352 355 357 0 1 1 358 351 341
350 351 345 329 322 323 320 321 318 314 308 300 295 290 283 280 281 282 285 287 291 295 297 301 305 309 317 321 327 331 335 339 343 348 353 356 359 2 5 2 2 359 354
350 348 346 334 324 318 317 322 324 316 313 312 305 300 296 288 283 281 282 284 287 291 294 297 300 305 314 319 326 330 334 338 343 348 353 356 1 3 8 9 4 4 1
347 346 344 341 335 322 313 318 321 321 315 315 312 310 299 296 293 286 283 283 284 287 291 295 297 302 309 317 323 330 333 338 342 347 353 356 1 4 7 12 11 6 5
343 344 343 342 335 337 331 322 319 320 317 314 319 318 308 302 299 295 290 285 283 283 286 290 294 300 304 314 319 327 331 337 340 346 353 356 1 4 7 12 15 12 8
340 341 339 340 339 339 340 340 331 324 322 320 319 317 322 322 306 300 295 293 288 283 281 284 289 295 300 307 315 323 329 334 339 344 351 356 360 2 7 11 16 18 15
337 337 337 334 334 331 337 339 334 334 319 323 322 326 325 318 321 310 302 296 290 287 283 281 282 289 296 301 310 319 325 329 337 342 349 355 359 3 5 11 16 20 23
335 334 335 329 329 323 323 327 331 331 332 332 327 318 320 321 322 319 309 304 292 287 286 282 280 280 290 296 305 313 322 325 333 340 346 353 358 3 6 8 14 20 23
333 331 331 322 322 321 318 317 317 324 326 327 330 330 327 322 322 324 318 310 300 287 288 285 279 277 280 290 298 307 315 321 327 337 344 350 356 1 7 9 11 17 22
328 328 329 325 316 316 318 315 318 315 315 320 321 328 329 329 323 325 323 313 309 297 288 289 285 276 272 281 289 299 307 316 321 330 340 346 353 358 4 9 12 13 19
326 323 325 322 317 318 318 313 307 311 312 312 312 315 323 328 331 324 322 315 307 310 301 289 292 283 274 272 281 288 299 306 314 322 335 342 348 356 1 8 11 13 16
322 323 322 320 313 315 311 308 312 307 307 306 307 310 317 321 325 326 315 316 319 309 307 301 289 287 279 268 271 279 288 298 306 314 325 336 343 351 358 5 11 12 14
320 319 320 312 308 308 309 308 308 309 302 301 301 303 305 312 317 318 318 307 306 307 308 299 296 287 283 276 265 269 277 288 296 305 313 326 336 343 353 0 6 12 13
316 318 314 317 311 308 304 303 302 302 300 299 295 298 299 305 309 314 313 315 301 301 300 303 288 291 284 276 270 263 268 276 287 295 304 314 327 335 345 354 1 8 13
315 313 304 302 307 307 303 302 301 298 293 296 292 288 289 298 302 307 309 314 301 294 293 296 292 286 283 277 267 262 259 265 275 283 294 303 313 326 335 346 354 360 8
309 306 302 302 302 303 306 303 303 295 289 289 294 294 294 291 293 301 308 308 302 299 294 293 292 287 284 278 264 261 256 257 263 273 281 293 300 310 322 334 346 354 359
305 303 303 302 300 300 301 303 301 294 289 290 292 289 289 288 294 300 301 306 296 292 290 292 293 286 281 276 266 259 256 249 254 261 270 279 289 295 307 318 330 343 351
301 302 301 301 298 297 300 300 300 296 290 287 281 282 287 290 290 295 297 299 294 289 287 289 285 282 277 273 269 260 252 250 246 252 259 266 277 285 292 302 313 325 338
300 300 298 298 298 296 299 299 296 294 288 285 281 279 283 286 287 288 290 291 290 286 282 288 277 274 269 268 266 260 252 248 244 245 252 258 265 275 281 288 296 305 318
297 297 296 296 295 295 298 296 295 293 291 289 288 287 286 285 287 292 292 286 281 281 280 277 269 268 266 264 262 261 254 248 245 240 244 250 256 263 273 279 285 291 297
296 295 294 296 297 297 297 294 292 292 293 291 290 291 290 286 286 285 279 279 277 278 270 264 263 262 261 263 258 258 255 249 243 242 238 243 249 255 262 271 277 282 287
295 295 296 296 296 296 295 296 294 294 291 287 283 280 280 278 276 276 271 270 274 272 267 262 261 258 258 260 258 255 257 253 245 239 238 238 242 249 254 260 269 276 281
293 295 295 296 297 296 295 296 293 289 285 282 280 277 274 273 271 271 270 270 271 268 265 263 261 257 256 256 257 257 257 254 248 236 235 235 239 242 248 254 260 267 275
294 296 296 297 300 297 297 295 293 286 281 283 280 275 273 272 270 269 269 270 268 265 265 263 260 257 256 256 258 257 257 254 251 240 235 234 235 239 242 249 254 260 267
Height
10719 10707 10698 10692 10685 10679 10673 10668 10664 10659 10654 10652 10649 10645 10643 10640 10636 10632 10627 10622 10616 10611 10604 10597 10588 10579 10569 10558 10546 10532 10517 10502 10485 10465 10441 10414 10384 10358 10337 10317 10303 10295 10287
10714 10702 10691 10682 10677 10669 10663 10658 10652 10646 10642 10638 10635 10632 10630 10626 10621 10618 10614 10611 10606 10600 10595 10588 10579 10571 10561 10550 10538 10524 10510 10495 10479 10459 10436 10410 10383 10356 10336 10319 10303 10291 10283
10709 10698 10686 10675 10666 10661 10655 10649 10643 10636 10631 10626 10621 10617 10614 10612 10609 10606 10602 10600 10595 10590 10584 10579 10570 10562 10554 10542 10531 10518 10503 10489 10473 10455 10434 10411 10384 10360 10338 10319 10304 10292 10280
10701 10691 10680 10669 10660 10652 10645 10639 10633 10626 10620 10615 10609 10604 10601 10597 10595 10592 10589 10587 10584 10580 10574 10569 10561 10553 10545 10534 10525 10512 10498 10484 10469 10452 10434 10413 10389 10364 10342 10323 10307 10292 10282
10692 10682 10671 10661 10652 10644 10636 10630 10623 10616 10610 10604 10598 10592 10588 10584 10581 10577 10574 10572 10571 10568 10563 10558 10552 10544 10537 10527 10517 10507 10495 10481 10467 10451 10433 10413 10390 10370 10349 10329 10309 10294 10282
10683 10673 10663 10653 10644 10634 10627 10621 10614 10607 10600 10593 10587 10582 10576 10572 10568 10564 10561 10559 10558 10556 10552 10548 10542 10536 10530 10520 10511 10502 10490 10478 10465 10450 10433 10415 10394 10374 10353 10334 10317 10301 10287
10674 10664 10656 10646 10636 10627 10619 10612 10605 10598 10591 10583 10576 10571 10566 10561 10557 10551 10548 10545 10544 10542 10538 10536 10532 10527 10523 10515 10506 10498 10488 10476 10463 10449 10434 10417 10398 10379 10361 10341 10324 10308 10293
10665 10655 10646 10637 10628 10620 10613 10605 10598 10590 10583 10576 10569 10562 10556 10551 10546 10540 10536 10532 10530 10529 10525 10523 10521 10518 10514 10508 10500 10493 10484 10473 10462 10450 10435 10420 10402 10385 10369 10349 10332 10316 10301
10654 10645 10636 10626 10619 10611 10604 10597 10590 10582 10574 10568 10561 10555 10548 10541 10536 10529 10525 10521 10517 10515 10512 10511 10509 10508 10505 10500 10494 10487 10480 10471 10461 10449 10437 10424 10407 10390 10373 10357 10340 10325 10310
10644 10633 10625 10616 10608 10602 10595 10588 10582 10574 10566 10558 10551 10545 10539 10532 10526 10519 10513 10509 10506 10503 10500 10498 10497 10497 10496 10492 10487 10481 10476 10468 10459 10449 10438 10426 10412 10396 10381 10364 10349 10333 10319
10630 10623 10614 10606 10599 10591 10584 10579 10572 10564 10557 10551 10545 10537 10530 10523 10516 10511 10504 10497 10495 10492 10489 10486 10485 10485 10485 10483 10479 10475 10470 10464 10456 10448 10438 10428 10415 10401 10388 10372 10356 10341 10327
10614 10607 10602 10594 10588 10580 10572 10565 10559 10554 10547 10540 10534 10527 10522 10515 10507 10501 10495 10489 10484 10481 10480 10477 10475 10475 10475 10473 10471 10468 10464 10460 10453 10445 10437 10429 10418 10405 10392 10379 10365 10351 10337
10600 10592 10584 10576 10571 10565 10558 10552 10546 10540 10535 10529 10523 10517 10512 10505 10499 10493 10486 10481 10476 10471 10470 10467 10465 10464 10465 10463 10462 10460 10457 10454 10450 10443 10436 10428 10420 10409 10396 10385 10372 10360 10347
10585 10576 10568 10559 10552 10547 10542 10537 10531 10526 10520 10514 10509 10503 10498 10493 10488 10484 10476 10472 10468 10463 10460 10458 10454 10454 10453 10453 10452 10451 10450 10447 10445 10440 10434 10427 10420 10411 10401 10390 10379 10368 10356
10565 10559 10550 10542 10537 10531 10526 10519 10514 10509 10505 10498 10491 10489 10485 10480 10476 10473 10467 10460 10457 10453 10449 10447 10444 10444 10442 10442 10441 10441 10441 10440 10438 10436 10431 10425 10419 10412 10403 10394 10384 10374 10363
10542 10534 10528 10525 10520 10514 10508 10503 10497 10491 10486 10481 10476 10471 10467 10463 10462 10460 10452 10448 10443 10441 10436 10435 10433 10432 10432 10431 10429 10430 10432 10431 10430 10430 10427 10423 10417 10412 10404 10396 10388 10378 10369
10521 10513 10508 10503 10500 10495 10488 10482 10475 10468 10466 10462 10458 10454 10450 10447 10445 10443 10439 10434 10428 10426 10424 10421 10420 10418 10419 10420 10418 10418 10421 10422 10422 10421 10421 10419 10415 10410 10404 10397 10389 10381 10373
10497 10492 10488 10482 10477 10467 10463 10458 10452 10446 10441 10439 10438 10434 10431 10430 10428 10426 10421 10417 10412 10410 10408 10407 10405 10404 10404 10407 10407 10405 10407 10412 10412 10412 10412 10412 10410 10407 10402 10397 10391 10383 10376
10474 10468 10463 10456 10451 10444 10438 10433 10428 10423 10418 10414 10413 10413 10410 10410 10408 10404 10402 10401 10397 10393 10392 10392 10391 10390 10390 10392 10394 10394 10394 10398 10402 10402 10402 10403 10403 10401 10399 10395 10391 10385 10378
10448 10442 10436 10429 10423 10416 10411 10406 10400 10397 10394 10392 10392 10391 10390 10389 10386 10386 10383 10382 10378 10375 10374 10374 10375 10374 10374 10376 10378 10380 10380 10383 10389 10391 10391 10393 10394 10394 10393 10390 10387 10384 10379
10420 10413 10406 10399 10394 10388 10385 10381 10377 10375 10373 10369 10367 10367 10368 10368 10365 10365 10364 10360 10358 10355 10355 10356 10355 10356 10357 10359 10361 10365 10366 10369 10374 10379 10380 10381 10383 10384 10385 10384 10382 10379 10376
10389 10383 10376 10371 10366 10361 10357 10354 10351 10350 10348 10345 10343 10342 10344 10344 10341 10340 10339 10336 10333 10334 10334 10336 10336 10338 10340 10341 10345 10349 10352 10355 10359 10363 10368 10369 10371 10373 10375 10375 10375 10373 10371
10362 10356 10349 10344 10339 10335 10331 10328 10327 10325 10323 10321 10319 10315 10314 10315 10315 10315 10313 10311 10312 10312 10312 10316 10317 10319 10322 10325 10328 10332 10335 10340 10344 10348 10353 10357 10358 10361 10363 10365 10366 10365 10365
10334 10327 10323 10319 10314 10309 10305 10303 10301 10299 10298 10296 10293 10291 10288 10288 10288 10287 10289 10288 10288 10290 10293 10296 10298 10301 10304 10306 10310 10315 10319 10323 10327 10332 10338 10342 10346 10348 10351 10353 10354 10355 10356
10308 10304 10298 10293 10288 10284 10279 10276 10273 10272 10270 10268 10264 10263 10261 10261 10262 10262 10265 10265 10267 10269 10272 10276 10279 10282 10285 10289 10293 10296 10301 10306 10311 10316 10320 10327 10332 10335 10337 10340 10342 10344 10345
10284 10279 10274 10268 10264 10259 10255 10250 10248 10245 10243 10241 10240 10240 10238 10237 10239 10242 10244 10244 10246 10249 10252 10255 10260 10264 10267 10272 10276 10280 10283 10287 10294 10300 10306 10310 10316 10322 10324 10327 10330 10331 10333